Dades meteomassalio
Diari Summary for Nil La, TWC- Units:  Metric    English   Both
« Previous Day
Next Day »
Diari Semanal Mensual Anual Personalitzat
  Maxima: Minima: Mijana:
Temperatura: -17.8 °C -12.6 °C -10.7 °C
Rosada: -17.8 °C -13.3 °C -11.8 °C
Humitat: Humidity % 63 % 87 %
Velocitat del vent: 0 km/h 0 km/h 0 km/h
Racha vent: 0 km/h - -
Vent:- - North
Pressio: 0 hPa 34439 hPa -
Pluja: 38.1 mm    
Historical Graphs
 
 
Tabular Data for Nil La, TWC-
Time Temperature Dew Point Pressure Wind Wind Speed Wind Gust Humidity Rainfall Rate (Hourly) solar Conditions
-17.8 °C -17.8 °C 0 hPa Calm     Humidity % 0 mm SolarRadiationWatts/m^2 W/m2 Conditions
00:04 -12.2 °C -13 °C 34564.3 hPa Calm     91 % 0 mm 0.00 W/m2 RA
00:09 -12.2 °C -13 °C 34560.9 hPa Calm     91 % 0 mm 0.00 W/m2 CLR
00:14 -12.2 °C -13 °C 34560.9 hPa Calm     91 % 0 mm 0.00 W/m2 CLR
00:19 -12.2 °C -13 °C 34564.3 hPa Calm     91 % 0 mm 0.00 W/m2 CLR
00:24 -12.2 °C -13 °C 34560.9 hPa Calm     91 % 0 mm 0.00 W/m2 CLR
00:29 -12.2 °C -13 °C 34557.5 hPa Calm     91 % 0 mm 0.00 W/m2 CLR
00:34 -12.2 °C -13 °C 34554.1 hPa Calm     91 % 0 mm 0.00 W/m2 CLR
00:39 -12.2 °C -13 °C 34554.1 hPa Calm     91 % 0 mm 0.00 W/m2 CLR
00:44 -11.9 °C -12.7 °C 34557.5 hPa Calm     91 % 0 mm 0.00 W/m2 CLR
00:49 -11.9 °C -12.8 °C 34557.5 hPa Calm     90 % 0 mm 0.00 W/m2 CLR
00:54 -11.9 °C -12.7 °C 34557.5 hPa Calm     91 % 0 mm 0.00 W/m2 CLR
00:59 -11.9 °C -12.7 °C 34554.1 hPa Calm     91 % 0 mm 0.00 W/m2 CLR
01:04 -12.2 °C -13 °C 34554.1 hPa Calm     91 % 0 mm 0.00 W/m2 CLR
01:09 -12.2 °C -13 °C 34550.7 hPa Calm     91 % 0 mm 0.00 W/m2 CLR
01:14 -12.2 °C -13 °C 34550.7 hPa Calm     91 % 0 mm 0.00 W/m2 CLR
01:19 -11.9 °C -12.7 °C 34550.7 hPa Calm     91 % 0 mm 0.00 W/m2 CLR
01:24 -11.9 °C -12.7 °C 34550.7 hPa Calm     91 % 0 mm 0.00 W/m2 CLR
01:29 -11.9 °C -12.7 °C 34550.7 hPa Calm     91 % 0 mm 0.00 W/m2 CLR
01:34 -12.2 °C -13 °C 34550.7 hPa Calm     91 % 0 mm 0.00 W/m2 CLR
01:39 -12.2 °C -13 °C 34547.4 hPa Calm     91 % 0 mm 0.00 W/m2 CLR
01:44 -12.2 °C -13 °C 34550.7 hPa Calm     91 % 0 mm 0.00 W/m2 CLR
01:49 -12.6 °C -13.3 °C 34547.4 hPa Calm     91 % 0 mm 0.00 W/m2 CLR
01:54 -12.6 °C -13.3 °C 34550.7 hPa Calm     91 % 0 mm 0.00 W/m2 CLR
01:59 -12.6 °C -13.3 °C 34547.4 hPa Calm     91 % 0 mm 0.00 W/m2 CLR
02:04 -12.6 °C -13.2 °C 34544 hPa Calm     92 % 0 mm 0.00 W/m2 CLR
02:09 -12.6 °C -13.2 °C 34544 hPa Calm     92 % 0 mm 0.00 W/m2 CLR
02:14 -12.2 °C -12.9 °C 34540.6 hPa Calm     92 % 0 mm 0.00 W/m2 CLR
02:19 -12.2 °C -12.9 °C 34544 hPa Calm     92 % 0 mm 0.00 W/m2 CLR
02:24 -12.2 °C -12.9 °C 34544 hPa Calm     92 % 0 mm 0.00 W/m2 CLR
02:29 -11.9 °C -12.6 °C 34537.2 hPa Calm     92 % 0 mm 0.00 W/m2 CLR
02:34 -11.9 °C -12.6 °C 34537.2 hPa Calm     92 % 0 mm 0.00 W/m2 CLR
02:39 -11.9 °C -12.6 °C 34537.2 hPa Calm     92 % 0 mm 0.00 W/m2 CLR
02:44 -11.9 °C -12.6 °C 34540.6 hPa Calm     92 % 0 mm 0.00 W/m2 CLR
02:49 -11.9 °C -12.6 °C 34540.6 hPa Calm     92 % 0 mm 0.00 W/m2 CLR
02:54 -11.9 °C -12.6 °C 34537.2 hPa Calm     92 % 0 mm 0.00 W/m2 CLR
02:59 -11.9 °C -12.6 °C 34537.2 hPa Calm     92 % 0 mm 0.00 W/m2 CLR
03:04 -11.9 °C -12.6 °C 34537.2 hPa Calm     92 % 0 mm 0.00 W/m2 CLR
03:09 -11.9 °C -12.6 °C 34537.2 hPa Calm     92 % 0 mm 0.00 W/m2 CLR
03:14 -11.9 °C -12.6 °C 34533.8 hPa Calm     92 % 0 mm 0.00 W/m2 CLR
03:19 -11.9 °C -12.6 °C 34530.4 hPa Calm     92 % 0 mm 0.00 W/m2 CLR
03:24 -11.9 °C -12.6 °C 34530.4 hPa Calm     92 % 0 mm 0.00 W/m2 CLR
03:29 -12.2 °C -12.9 °C 34533.8 hPa Calm     92 % 0 mm 0.00 W/m2 CLR
03:34 -12.2 °C -12.9 °C 34533.8 hPa Calm     92 % 0 mm 0.00 W/m2 CLR
03:39 -12.2 °C -12.9 °C 34530.4 hPa Calm     92 % 0 mm 0.00 W/m2 CLR
03:44 -12.6 °C -13.2 °C 34533.8 hPa Calm     92 % 0 mm 0.00 W/m2 CLR
03:49 -12.6 °C -13.2 °C 34533.8 hPa Calm     92 % 0 mm 0.00 W/m2 CLR
03:54 -12.2 °C -12.9 °C 34533.8 hPa Calm     92 % 0 mm 0.00 W/m2 CLR
03:59 -12.2 °C -12.9 °C 34530.4 hPa Calm     92 % 0 mm 0.00 W/m2 CLR
04:04 -12.2 °C -12.9 °C 34527 hPa Calm     92 % 0 mm 0.00 W/m2 CLR
04:09 -12.6 °C -13.2 °C 34527 hPa Calm     92 % 0 mm 0.00 W/m2 CLR
04:14 -12.6 °C -13.2 °C 34523.7 hPa Calm     92 % 0 mm 0.00 W/m2 CLR
04:19 -12.6 °C -13.2 °C 34527 hPa Calm     92 % 0 mm 0.00 W/m2 CLR
04:24 -12.6 °C -13.2 °C 34527 hPa Calm     92 % 0 mm 0.00 W/m2 CLR
04:29 -12.6 °C -13.2 °C 34527 hPa Calm     92 % 0 mm 0.00 W/m2 CLR
04:34 -12.6 °C -13.2 °C 34527 hPa Calm     92 % 0 mm 0.00 W/m2 CLR
04:39 -12.6 °C -13.2 °C 34527 hPa Calm     92 % 0 mm 0.00 W/m2 CLR
04:44 -12.6 °C -13.2 °C 34527 hPa Calm     92 % 0 mm 0.00 W/m2 CLR
04:49 -12.6 °C -13.2 °C 34530.4 hPa Calm     92 % 0 mm 0.00 W/m2 CLR
04:54 -12.6 °C -13.2 °C 34530.4 hPa Calm     92 % 0 mm 0.00 W/m2 CLR
04:59 -12.6 °C -13.2 °C 34530.4 hPa Calm     92 % 0 mm 0.00 W/m2 CLR
05:04 -12.2 °C -12.8 °C 34527 hPa Calm     93 % 0 mm 0.00 W/m2 CLR
05:09 -12.2 °C -12.9 °C 34523.7 hPa Calm     92 % 0 mm 0.00 W/m2 CLR
05:14 -12.2 °C -12.9 °C 34523.7 hPa Calm     92 % 0 mm 0.00 W/m2 CLR
05:19 -12.2 °C -12.9 °C 34523.7 hPa Calm     92 % 0 mm 0.00 W/m2 CLR
05:24 -12.2 °C -12.9 °C 34527 hPa Calm     92 % 0 mm 0.00 W/m2 CLR
05:29 -12.2 °C -12.9 °C 34527 hPa Calm     92 % 0 mm 0.00 W/m2 CLR
05:34 -12.2 °C -12.8 °C 34527 hPa Calm     93 % 0 mm 0.00 W/m2 CLR
05:39 -12.2 °C -12.9 °C 34523.7 hPa Calm     92 % 0 mm 0.00 W/m2 CLR
05:44 -12.2 °C -12.9 °C 34523.7 hPa Calm     92 % 0 mm 0.00 W/m2 CLR
05:49 -12.2 °C -12.9 °C 34523.7 hPa Calm     92 % 0 mm 0.00 W/m2 CLR
05:54 -12.2 °C -12.9 °C 34527 hPa Calm     92 % 0 mm 0.00 W/m2 CLR
05:59 -12.2 °C -12.8 °C 34530.4 hPa Calm     93 % 0 mm 0.00 W/m2 CLR
06:04 -12.2 °C -12.9 °C 34530.4 hPa Calm     92 % 0 mm 0.00 W/m2 CLR
06:09 -11.9 °C -12.6 °C 34533.8 hPa Calm     93 % 0 mm 0.00 W/m2 CLR
06:14 -11.9 °C -12.6 °C 34533.8 hPa Calm     93 % 0 mm 0.00 W/m2 CLR
06:19 -11.9 °C -12.6 °C 34540.6 hPa Calm     93 % 0 mm 0.00 W/m2 CLR
06:24 -11.9 °C -12.6 °C 34540.6 hPa Calm     93 % 0 mm 0.00 W/m2 CLR
06:29 -11.9 °C -12.6 °C 34540.6 hPa Calm     93 % 0 mm 0.00 W/m2 CLR
06:34 -11.9 °C -12.6 °C 34540.6 hPa Calm     93 % 7.62 mm 0.00 W/m2 RA
06:39 -11.9 °C -12.6 °C 34540.6 hPa Calm     93 % 7.62 mm 0.00 W/m2 CLR
06:44 -11.6 °C -12.2 °C 34540.6 hPa Calm     93 % 7.62 mm 0.00 W/m2 CLR
06:49 -11.6 °C -12.3 °C 34540.6 hPa Calm     92 % 7.62 mm 0.00 W/m2 CLR
06:54 -11.6 °C -12.2 °C 34544 hPa Calm     93 % 7.62 mm 0.00 W/m2 CLR
06:59 -11.6 °C -12.2 °C 34544 hPa Calm     93 % 7.62 mm 0.00 W/m2 CLR
07:04 -11.6 °C -12.2 °C 34547.4 hPa Calm     93 % 7.62 mm 0.00 W/m2 CLR
07:09 -11.6 °C -12.2 °C 34544 hPa Calm     93 % 12.7 mm 0.00 W/m2 RA
07:14 -11.6 °C -12.2 °C 34547.4 hPa Calm     93 % 12.7 mm 0.00 W/m2 RA
07:19 -11.6 °C -12.2 °C 34547.4 hPa Calm     93 % 20.32 mm 0.00 W/m2 RA
07:24 -11.6 °C -12.2 °C 34547.4 hPa Calm     93 % 20.32 mm 0.00 W/m2
07:29 -11.6 °C -12.2 °C 34544 hPa Calm     93 % 20.32 mm 0.00 W/m2 CLR
07:34 -11.6 °C -12.2 °C 34540.6 hPa Calm     93 % 20.32 mm 0.00 W/m2 RA
07:39 -11.6 °C -12.2 °C 34540.6 hPa Calm     93 % 20.32 mm 0.00 W/m2 CLR
07:44 -11.6 °C -12.2 °C 34540.6 hPa Calm     93 % 20.32 mm 0.00 W/m2 CLR
07:49 -11.6 °C -12.2 °C 34537.2 hPa Calm     93 % 25.4 mm 0.00 W/m2 RA
07:54 -11.6 °C -12.2 °C 34537.2 hPa Calm     93 % 25.4 mm 0.00 W/m2
07:59 -11.6 °C -12.2 °C 34533.8 hPa Calm     93 % 25.4 mm 0.00 W/m2 CLR
08:04 -11.3 °C -11.9 °C 34533.8 hPa Calm     93 % 25.4 mm 0.00 W/m2 OVC
08:09 -11.3 °C -11.9 °C 34530.4 hPa Calm     93 % 25.4 mm 0.00 W/m2 RA
08:14 -11.3 °C -11.9 °C 34530.4 hPa Calm     93 % 20.32 mm 7.00 W/m2 CLR
08:19 -11.3 °C -11.9 °C 34527 hPa Calm     93 % 12.7 mm 18.00 W/m2 BKN
08:24 -11 °C -11.6 °C 34527 hPa Calm     93 % 12.7 mm 19.00 W/m2 BKN
08:29 -11 °C -11.6 °C 34530.4 hPa Calm     93 % 12.7 mm 23.00 W/m2 BKN
08:34 -11 °C -11.6 °C 34527 hPa Calm     93 % 12.7 mm 28.00 W/m2 RA
08:39 -11 °C -11.6 °C 34527 hPa Calm     93 % 12.7 mm 46.00 W/m2 BKN
08:44 -11 °C -11.6 °C 34527 hPa Calm     93 % 12.7 mm 62.00 W/m2 SCT
08:49 -11 °C -11.6 °C 34527 hPa Calm     93 % 12.7 mm 67.00 W/m2 SCT
08:54 -11 °C -11.6 °C 34530.4 hPa Calm     93 % 12.7 mm 63.00 W/m2 SCT
08:59 -11 °C -11.6 °C 34530.4 hPa Calm     93 % 12.7 mm 88.00 W/m2 CLR
09:04 -11 °C -11.6 °C 34533.8 hPa Calm     93 % 12.7 mm 60.00 W/m2 SCT
09:09 -11 °C -11.6 °C 34533.8 hPa Calm     93 % 7.62 mm 86.00 W/m2 FEW
09:14 -10.7 °C -11.3 °C 34537.2 hPa Calm     93 % 7.62 mm 125.00 W/m2 FEW
09:19 -10.7 °C -11.3 °C 34537.2 hPa Calm     93 % 7.62 mm 171.00 W/m2 CLR
09:24 -10.7 °C -11.3 °C 34537.2 hPa Calm     93 % 7.62 mm 109.00 W/m2 CLR
09:29 -10.4 °C -11 °C 34537.2 hPa Calm     93 % 7.62 mm 137.00 W/m2 CLR
09:34 -10.4 °C -11 °C 34540.6 hPa Calm     93 % 0 mm 162.00 W/m2 CLR
09:39 -10.1 °C -10.7 °C 34544 hPa Calm     93 % 0 mm 134.00 W/m2 CLR
09:44 -10.1 °C -10.8 °C 34544 hPa Calm     92 % 0 mm 211.00 W/m2 CLR
09:49 -10.1 °C -10.8 °C 34544 hPa Calm     92 % 0 mm 146.00 W/m2 CLR
09:54 -10.1 °C -10.8 °C 34544 hPa Calm     92 % 0 mm 137.00 W/m2 CLR
09:59 -10.1 °C -10.8 °C 34540.6 hPa Calm     92 % 0 mm 137.00 W/m2 CLR
10:04 -10.1 °C -10.8 °C 34544 hPa Calm     92 % 0 mm 244.00 W/m2 CLR
10:09 -10.1 °C -10.8 °C 34544 hPa Calm     92 % 0 mm 241.00 W/m2 CLR
10:14 -10.1 °C -10.8 °C 34544 hPa Calm     92 % 0 mm 197.00 W/m2 CLR
10:19 -9.8 °C -10.4 °C 34544 hPa Calm     92 % 0 mm 186.00 W/m2 CLR
10:24 -9.8 °C -10.6 °C 34544 hPa Calm     91 % 0 mm 260.00 W/m2 CLR
10:29 -9.8 °C -10.6 °C 34540.6 hPa Calm     91 % 0 mm 323.00 W/m2 CLR
10:34 -9.8 °C -10.7 °C 34540.6 hPa Calm     90 % 0 mm 257.00 W/m2 CLR
10:39 -9.4 °C -10.4 °C 34540.6 hPa Calm     89 % 0 mm 452.00 W/m2 CLR
10:44 -9.4 °C -10.4 °C 34537.2 hPa Calm     89 % 0 mm 415.00 W/m2 CLR
10:49 -9.4 °C -10.6 °C 34533.8 hPa Calm     88 % 0 mm 436.00 W/m2 CLR
10:54 -9.4 °C -10.7 °C 34533.8 hPa Calm     87 % 0 mm 429.00 W/m2 CLR
10:59 -9.4 °C -10.7 °C 34533.8 hPa Calm     87 % 0 mm 432.00 W/m2 CLR
11:04 -9.1 °C -10.4 °C 34530.4 hPa Calm     86 % 0 mm 436.00 W/m2 CLR
11:09 -9.1 °C -10.5 °C 34527 hPa Calm     85 % 0 mm 443.00 W/m2 CLR
11:14 -9.1 °C -10.6 °C 34530.4 hPa Calm     84 % 0 mm 450.00 W/m2 CLR
11:19 -9.1 °C -10.6 °C 34523.7 hPa Calm     84 % 0 mm 461.00 W/m2 CLR
11:24 -9.1 °C -10.8 °C 34523.7 hPa Calm     82 % 0 mm 466.00 W/m2 CLR
11:29 -8.8 °C -10.7 °C 34523.7 hPa Calm     81 % 0 mm 480.00 W/m2 CLR
11:34 -8.8 °C -10.9 °C 34523.7 hPa Calm     78 % 0 mm 494.00 W/m2 CLR
11:39 -8.8 °C -10.9 °C 34523.7 hPa Calm     79 % 0 mm 503.00 W/m2 CLR
11:44 -8.5 °C -10.6 °C 34516.9 hPa Calm     79 % 0 mm 512.00 W/m2 CLR
11:49 -8.5 °C -10.4 °C 34516.9 hPa Calm     80 % 0 mm 515.00 W/m2 CLR
11:54 -8.5 °C -10.8 °C 34516.9 hPa Calm     77 % 0 mm 533.00 W/m2 CLR
11:59 -8.2 °C -10.6 °C 34513.5 hPa Calm     76 % 0 mm 538.00 W/m2 CLR
12:04 -8.2 °C -10.7 °C 34513.5 hPa Calm     75 % 0 mm 563.00 W/m2 CLR
12:09 -7.9 °C -10.3 °C 34513.5 hPa Calm     76 % 0 mm 561.00 W/m2 CLR
12:14 -7.9 °C -10.4 °C 34513.5 hPa Calm     75 % 0 mm 490.00 W/m2 CLR
12:19 -7.9 °C -10.3 °C 34513.5 hPa Calm     76 % 0 mm 566.00 W/m2 CLR
12:24 -7.6 °C -10.3 °C 34510.1 hPa Calm     73 % 0 mm 578.00 W/m2 CLR
12:29 -7.6 °C -10.4 °C 34510.1 hPa Calm     72 % 0 mm 587.00 W/m2 CLR
12:34 -7.6 °C -10.2 °C 34506.7 hPa Calm     74 % 0 mm 591.00 W/m2 CLR
12:39 -7.6 °C -10.2 °C 34503.3 hPa Calm     74 % 0 mm 598.00 W/m2 CLR
12:44 -7.3 °C -9.9 °C 34506.7 hPa Calm     74 % 0 mm 605.00 W/m2 CLR
12:49 -7.3 °C -10.1 °C 34503.3 hPa Calm     73 % 0 mm 608.00 W/m2 CLR
12:54 -7.3 °C -10.1 °C 34500 hPa Calm     73 % 0 mm 615.00 W/m2 CLR
12:59 -7 °C -9.7 °C 34500 hPa Calm     73 % 0 mm 624.00 W/m2 CLR
13:04 -6.7 °C -9.6 °C 34493.2 hPa Calm     72 % 0 mm 621.00 W/m2 CLR
13:09 -6.7 °C -9.7 °C 34489.8 hPa Calm     71 % 0 mm 608.00 W/m2 CLR
13:14 -6.7 °C -9.7 °C 34486.4 hPa Calm     71 % 0 mm 633.00 W/m2 CLR
13:19 -6.7 °C -9.9 °C 34483 hPa Calm     69 % 0 mm 638.00 W/m2 CLR
13:24 -7 °C -10.3 °C 34479.6 hPa Calm     68 % 0 mm 645.00 W/m2 CLR
13:29 -7 °C -10.2 °C 34476.3 hPa Calm     69 % 0 mm 647.00 W/m2 CLR
13:34 -6.7 °C -10.1 °C 34472.9 hPa Calm     68 % 0 mm 643.00 W/m2 CLR
13:39 -6.7 °C -9.9 °C 34469.5 hPa Calm     69 % 0 mm 561.00 W/m2 CLR
13:44 -6.3 °C -9.9 °C 34466.1 hPa Calm     67 % 0 mm 652.00 W/m2 CLR
13:49 -6.3 °C -10 °C 34462.7 hPa Calm     66 % 0 mm 647.00 W/m2 CLR
13:54 -6.3 °C -9.9 °C 34459.3 hPa Calm     67 % 0 mm 650.00 W/m2 CLR
13:59 -6.3 °C -10 °C 34459.3 hPa Calm     66 % 0 mm 631.00 W/m2 CLR
14:04 -6.1 °C -9.6 °C 34455.9 hPa Calm     67 % 0 mm 666.00 W/m2 CLR
14:09 -6.1 °C -9.7 °C 34452.6 hPa Calm     66 % 0 mm 657.00 W/m2 CLR
14:14 -6.1 °C -9.9 °C 34445.8 hPa Calm     64 % 0 mm 269.00 W/m2 CLR
14:19 -6.1 °C -10.1 °C 34445.8 hPa Calm     63 % 0 mm 652.00 W/m2 CLR
14:24 -6.1 °C -10.1 °C 34442.4 hPa Calm     63 % 0 mm 647.00 W/m2 CLR
14:29 -6.1 °C -10.1 °C 34439 hPa Calm     63 % 0 mm 635.00 W/m2 CLR
Lo Temps de Massalio
Compliments of Weather Underground - 768 kb